Weather History for Oakland, CA

Change the Weather History Date:

Monday, August 19, 2013

  Actual Average Record
Temperature  
Mean Temperature 66 °F 64 °F  
Max Temperature 76 °F 73 °F 90 °F (1950)
Min Temperature 56 °F 56 °F 51 °F (2001)
Degree Days  
Heating Degree Days 0 2  
Month to date heating degree days 29 39  
Since 1 June heating degree days 133 225  
Since 1 July heating degree days 73 122  
Cooling Degree Days 1 1  
Month to date cooling degree days 16 11  
Year to date cooling degree days 121 63  
Since 1 June cooling degree days 80 47  
Growing Degree Days 14 (Base 50)    
Moisture  
Dew Point 60 °F    
Average Humidity 82    
Maximum Humidity 100    
Minimum Humidity 64    
Precipitation  
Precipitation 0.00 in 0.00 in 0.03 in (1961)
Month to date precipitation T 0.02  
Year to date precipitation 2.82 13.25  
Since 1 July precipitation T 0.03  
Sea Level Pressure  
Sea Level Pressure 29.86 in    
Wind  
Wind Speed 9 mph (NW)    
Max Wind Speed 22 mph    
Max Gust Speed 39 mph    
Visibility 10 miles    
Events      
T = Trace of Precipitation, MM = Missing Value Source: NWS Daily Summary

Daily Weather History Graph

Daily Weather History Graph

Search for Another Location

Airport:

Trip Planner

Search our weather history database for the weather conditions in past years. The results will help you decide how hot, cold, wet, or windy it might be!

Date:

Astronomy

Aug. 19, 2013 Rise Set
Actual Time 6:28 AM PDT 7:55 PM PDT
Civil Twilight 6:00 AM PDT 8:23 PM PDT
Nautical Twilight 5:27 AM PDT 8:56 PM PDT
Astronomical Twilight 4:52 AM PDT 9:31 PM PDT
Moon 6:51 PM PDT (8/19) 4:54 AM PDT (8/19)
Length of Visible Light 14h 22m
Length of Day
13h 27m
Waxing Gibbous, 98% of the Moon is Illuminated
Aug 19
Waxing Gibbous
Aug 20
Full
Aug 28
Last Quarter
Sep 5
New
Sep 12
First Quarter

Hourly Weather History & Observations

Time (PDT) Temp. Dew Point Humidity Pressure Visibility Wind Dir Wind Speed Gust Speed Precip Events Conditions
12:53 AM 64.9 °F 64.9 °F 100% 29.82 in 10.0 mi West 8.1 mph - N/A   Partly Cloudy
1:53 AM 62.1 °F 60.1 °F 93% 29.81 in 10.0 mi Calm Calm - N/A   Partly Cloudy
2:53 AM 62.1 °F 59.0 °F 90% 29.79 in 10.0 mi NW 5.8 mph - N/A   Partly Cloudy
3:53 AM 60.1 °F 57.9 °F 93% 29.81 in 10.0 mi NNW 3.5 mph - N/A   Partly Cloudy
4:53 AM 57.9 °F 55.0 °F 90% 29.82 in 10.0 mi NNW 4.6 mph - N/A   Partly Cloudy
5:53 AM 60.1 °F 57.0 °F 90% 29.84 in 10.0 mi North 5.8 mph - N/A   Scattered Clouds
6:53 AM 60.1 °F 57.0 °F 90% 29.86 in 10.0 mi NW 4.6 mph - N/A   Partly Cloudy
7:53 AM 60.1 °F 60.1 °F 100% 29.87 in 10.0 mi NNW 6.9 mph - N/A   Partly Cloudy
8:53 AM 64.0 °F 62.1 °F 93% 29.89 in 10.0 mi North 8.1 mph - N/A   Partly Cloudy
9:53 AM 66.0 °F 63.0 °F 90% 29.90 in 10.0 mi WNW 9.2 mph - N/A   Partly Cloudy
10:53 AM 71.1 °F 64.0 °F 78% 29.90 in 10.0 mi WNW 9.2 mph 23.0 mph N/A   Scattered Clouds
11:53 AM 73.0 °F 63.0 °F 71% 29.90 in 10.0 mi WNW 11.5 mph - N/A   Partly Cloudy
12:53 PM 73.9 °F 61.0 °F 64% 29.88 in 10.0 mi NW 12.7 mph - N/A   Scattered Clouds
1:53 PM 71.1 °F 60.1 °F 68% 29.87 in 10.0 mi NW 16.1 mph - N/A   Partly Cloudy
2:53 PM 72.0 °F 61.0 °F 68% 29.87 in 10.0 mi WNW 17.3 mph - N/A   Partly Cloudy
3:53 PM 70.0 °F 61.0 °F 73% 29.86 in 10.0 mi NW 16.1 mph - N/A   Partly Cloudy
4:53 PM 66.9 °F 61.0 °F 81% 29.84 in 10.0 mi WNW 13.8 mph - N/A   Partly Cloudy
5:53 PM 64.9 °F 62.1 °F 90% 29.84 in 10.0 mi WNW 15.0 mph - N/A   Partly Cloudy
6:53 PM 63.0 °F 61.0 °F 93% 29.85 in 10.0 mi NW 11.5 mph - N/A   Scattered Clouds
7:44 PM 60.8 °F 60.8 °F 100% 29.85 in 10.0 mi NNW 9.2 mph - N/A   Scattered Clouds
7:53 PM 60.1 °F 60.1 °F 100% 29.85 in 10.0 mi NW 9.2 mph - N/A   Scattered Clouds
8:53 PM 59.0 °F 59.0 °F 100% 29.87 in 10.0 mi North 6.9 mph - N/A   Scattered Clouds
9:53 PM 57.0 °F 57.0 °F 100% 29.89 in 10.0 mi North 6.9 mph - N/A   Scattered Clouds
10:53 PM 55.9 °F 55.9 °F 100% 29.90 in 10.0 mi NNW 9.2 mph - N/A   Scattered Clouds
11:53 PM 62.1 °F 57.0 °F 84% 29.89 in 10.0 mi NNW 5.8 mph - N/A   Overcast